Flag for U.S.A. Weather past 2 weeks in Hayward, California, U.S.A.

Now
64 °F

Passing clouds.


Feels Like: 64 °F
Forecast: 62 / 75 °F
Wind: 3 mph from Southwest

Location: Hayward Air Terminal

Current Time: Sep 30, 2014 at 4:52:29 AM

Latest Report: Sep 30, 2014 at 4:02 AM


Visibility: 10 mi

Pressure: 29.96 "Hg

Humidity: 88%

Dew point: 61 °F

Location of HaywardLocation

Historic Weather in Hayward — Graph

°F

Hayward temperature yesterday

Maximum temperature yesterday: 73 °F (at 2:54 PM)
Minimum temperature yesterday: 61 °F (at 12:54 AM)
Average temperature yesterday: 65 °F

Past Weeks' High & Low Weather Summary

 TemperatureHumidityPressure
High82 °F (Sep 17, 3:54 PM)100% (Sep 24, 2:54 AM)30.07 "Hg (Sep 24, 2:54 AM)
Low61 °F (Sep 25, 6:54 AM)38% (Sep 17, 3:54 PM)29.77 "Hg (Sep 17, 6:54 PM)
Average69 °F78%29.94 "Hg
* Reported Sep 15 3:54 AM — Sep 30 3:54 AM, Hayward, Weather by CustomWeather, © 2014

Note: Actual official high and low records may vary slightly from our data, if they occured in-between our weather recording intervals... More about our weather records

Advertising

Hayward weather history for previous 24 hours

 ConditionsComfort  
Time TempWeatherWind HumidityBarometerVisibility
3:54 AM
Sep 30
64 °FPassing clouds.5 mph90%29.99 "Hg10 mi
2:54 AM64 °FPassing clouds.7 mph90%29.99 "Hg10 mi
1:54 AM61 °FPassing clouds.5 mph93%30.00 "Hg10 mi
12:54 AM63 °FOvercast.5 mph90%30.01 "Hg10 mi
11:54 PM
Sep 29
63 °FOvercast.3 mph90%30.01 "Hg10 mi
10:54 PM63 °FOvercast.7 mph93%30.02 "Hg10 mi
9:54 PM63 °FOvercast.No wind90%30.02 "Hg10 mi
8:54 PM64 °FPassing clouds.5 mph87%30.01 "Hg10 mi
7:54 PM64 °FPassing clouds.9 mph90%30.00 "Hg10 mi
6:54 PM64 °FPassing clouds.8 mph87%30.00 "Hg10 mi
5:54 PM67 °FSunny.9 mph79%30.00 "Hg10 mi
4:54 PM67 °FSunny.14 mph79%30.01 "Hg10 mi
3:54 PM70 °FSunny.15 mph68%30.01 "Hg10 mi
2:54 PM73 °FSunny.12 mph62%30.01 "Hg10 mi
1:54 PM70 °FSunny.8 mph68%30.03 "Hg10 mi
12:54 PM69 °FPassing clouds.7 mph70%30.06 "Hg10 mi
11:54 AM65 °FOvercast.7 mph85%30.07 "Hg10 mi
10:54 AM63 °FMore clouds than sun.6 mph93%30.07 "Hg8 mi
9:54 AM65 °FOvercast.3 mph85%30.06 "Hg9 mi
8:54 AM64 °FOvercast.No wind90%30.04 "Hg10 mi
7:54 AM64 °FOvercast.3 mph94%30.03 "Hg10 mi
6:54 AM62 °FOvercast.No wind96%30.01 "Hg10 mi
5:54 AM63 °FOvercast.No wind97%30.00 "Hg9 mi
4:54 AM61 °FOvercast.No wind100%30.00 "Hg10 mi
Weather by CustomWeather, © 2014

See weather overviewHow to use our weather pages